Tracking 17752 objects as of 1-July-2016
HD Live streaming from Space Station
objects crossing your sky now

NAVSTAR 19 (USA 54)

Track NAVSTAR 19 (USA 54) now!
NAVSTAR 19 (USA 54) is classified as:


NORAD ID: 20533
Int'l Code: 1990-025A
Perigee: 20,958.7 km
Apogee: 21,178.7 km
Inclination: 55.5 °
Period: 753.9 minutes
Semi major axis: 27439 km
RCS: 0.6015 m2 (medium)
Launch date: March 26, 1990
Source: United States (US)
Launch site: AIR FORCE EASTERN TEST RANGE (AFETR)
PRN:
Your satellite tracking list
Your tracking list is empty





NASA's NSSDC Master Catalog

Two Line Element Set (TLE):
1 20533U 90025A   16181.61055464 -.00000059 +00000-0 +00000-0 0  9992
2 20533 055.5347 018.5313 0040088 148.7324 079.9073 01.91038426185489
Source of the keplerian elements: AFSPC

N2YO: 984